Time,TemperatureF,DewpointF,PressureIn,WindDirection,WindDirectionDegrees,WindSpeedMPH,WindSpeedGustMPH,Humidity,HourlyPrecipIn,Conditions,Clouds,dailyrainin,SolarRadiationWatts/m^2,SoftwareType,DateUTC
2013-04-23 00:01:00,37.0,17.0,-100.00,North,358,0.0,0.0,44,0.00,,,0.00,0.000000,,2013-04-23 07:01:00,
2013-04-23 00:32:00,37.0,19.0,-100.00,North,3,0.0,0.0,47,0.00,,,0.00,0.000000,,2013-04-23 07:32:00,
2013-04-23 00:42:00,37.0,19.0,-100.00,North,3,0.0,0.0,47,0.00,,,0.00,0.000000,,2013-04-23 07:42:00,
2013-04-23 00:52:00,37.0,19.0,-100.00,North,3,0.0,0.0,47,0.00,,,0.00,0.000000,,2013-04-23 07:52:00,
2013-04-23 01:01:00,37.0,19.0,-100.00,North,3,0.0,0.0,47,0.00,,,0.00,0.000000,,2013-04-23 08:01:00,
2013-04-23 01:32:00,37.0,21.0,-100.00,NNE,18,0.0,0.0,51,0.00,,,0.00,0.000000,,2013-04-23 08:32:00,
2013-04-23 01:42:00,37.0,21.0,-100.00,NNE,18,0.0,0.0,51,0.00,,,0.00,0.000000,,2013-04-23 08:42:00,
2013-04-23 01:52:00,37.0,21.0,-100.00,NNE,18,0.0,0.0,51,0.00,,,0.00,0.000000,,2013-04-23 08:52:00,
2013-04-23 02:01:00,37.0,21.0,-100.00,NNE,18,0.0,0.0,51,0.00,,,0.00,0.000000,,2013-04-23 09:01:00,
2013-04-23 02:33:00,36.0,22.0,-100.00,NNW,346,0.0,0.0,57,0.00,,,0.00,0.000000,,2013-04-23 09:33:00,
2013-04-23 02:43:00,36.0,22.0,-100.00,NNW,346,0.0,0.0,57,0.00,,,0.00,0.000000,,2013-04-23 09:43:00,
2013-04-23 02:53:00,36.0,22.0,-100.00,NNW,346,0.0,0.0,57,0.00,,,0.00,0.000000,,2013-04-23 09:53:00,
2013-04-23 03:02:00,36.0,22.0,-100.00,NNW,346,0.0,0.0,57,0.00,,,0.00,0.000000,,2013-04-23 10:02:00,
2013-04-23 03:33:00,34.0,21.0,-100.00,NNW,344,0.0,0.0,59,0.00,,,0.00,0.000000,,2013-04-23 10:33:00,
2013-04-23 03:42:00,34.0,21.0,-100.00,NNW,344,0.0,0.0,59,0.00,,,0.00,0.000000,,2013-04-23 10:42:00,
2013-04-23 03:52:00,34.0,21.0,-100.00,NNW,344,0.0,0.0,59,0.00,,,0.00,0.000000,,2013-04-23 10:52:00,
2013-04-23 04:02:00,34.0,21.0,-100.00,NNW,344,0.0,0.0,59,0.00,,,0.00,0.000000,,2013-04-23 11:02:00,
2013-04-23 04:32:00,32.0,20.0,-100.00,North,6,0.0,0.0,61,0.00,,,-99.99,0.000000,,2013-04-23 11:32:00,
2013-04-23 04:43:00,32.0,20.0,-100.00,North,6,0.0,0.0,61,0.00,,,-99.99,0.000000,,2013-04-23 11:43:00,
2013-04-23 04:53:00,32.0,20.0,-100.00,North,6,0.0,0.0,61,0.00,,,-99.99,0.000000,,2013-04-23 11:53:00,
2013-04-23 05:01:00,32.0,20.0,-100.00,North,6,0.0,0.0,61,0.00,,,-99.99,0.000000,,2013-04-23 12:01:00,
2013-04-23 06:32:00,32.0,20.0,-100.00,NNW,346,0.0,0.0,61,-99.99,,,0.00,0.000000,,2013-04-23 13:32:00,
2013-04-23 06:42:00,32.0,20.0,-100.00,NNW,346,0.0,0.0,61,-99.99,,,0.00,0.000000,,2013-04-23 13:42:00,
2013-04-23 06:52:00,32.0,20.0,-100.00,NNW,346,0.0,0.0,61,-99.99,,,0.00,0.000000,,2013-04-23 13:52:00,
2013-04-23 07:01:00,32.0,20.0,-100.00,NNW,346,0.0,0.0,61,-99.99,,,0.00,0.000000,,2013-04-23 14:01:00,
2013-04-23 07:32:00,32.0,21.0,-100.00,North,4,0.0,0.0,63,0.00,,,0.00,26.000000,,2013-04-23 14:32:00,
2013-04-23 07:42:00,32.0,21.0,-100.00,North,4,0.0,0.0,63,0.00,,,0.00,26.000000,,2013-04-23 14:42:00,
2013-04-23 07:52:00,32.0,21.0,-100.00,North,4,0.0,0.0,63,0.00,,,0.00,26.000000,,2013-04-23 14:52:00,
2013-04-23 08:01:00,32.0,21.0,-100.00,North,4,0.0,0.0,63,0.00,,,0.00,26.000000,,2013-04-23 15:01:00,
2013-04-23 08:32:00,39.0,23.0,-100.00,South,185,0.0,0.0,53,0.00,,,0.00,143.000000,,2013-04-23 15:32:00,
2013-04-23 08:43:00,39.0,23.0,-100.00,South,185,0.0,0.0,53,0.00,,,0.00,143.000000,,2013-04-23 15:43:00,
2013-04-23 08:53:00,39.0,23.0,-100.00,South,185,0.0,0.0,53,0.00,,,0.00,143.000000,,2013-04-23 15:53:00,
2013-04-23 09:02:00,39.0,23.0,-100.00,South,185,0.0,0.0,53,0.00,,,0.00,143.000000,,2013-04-23 16:02:00,
2013-04-23 09:34:00,43.0,22.0,-100.00,South,174,1.0,5.0,42,0.00,,,0.00,335.000000,,2013-04-23 16:34:00,
2013-04-23 09:43:00,43.0,22.0,-100.00,South,174,1.0,5.0,42,0.00,,,0.00,335.000000,,2013-04-23 16:43:00,
2013-04-23 09:53:00,43.0,22.0,-100.00,South,174,1.0,5.0,42,0.00,,,0.00,335.000000,,2013-04-23 16:53:00,
2013-04-23 10:02:00,43.0,22.0,-100.00,South,174,1.0,5.0,42,0.00,,,0.00,335.000000,,2013-04-23 17:02:00,
2013-04-23 10:33:00,43.0,22.0,-100.00,SSE,162,0.0,4.0,42,0.00,,,-99.99,216.000000,,2013-04-23 17:33:00,
2013-04-23 10:43:00,43.0,22.0,-100.00,SSE,162,0.0,4.0,42,0.00,,,-99.99,216.000000,,2013-04-23 17:43:00,
2013-04-23 10:53:00,43.0,22.0,-100.00,SSE,162,0.0,4.0,42,0.00,,,-99.99,216.000000,,2013-04-23 17:53:00,
2013-04-23 11:01:00,43.0,22.0,-100.00,SSE,162,0.0,4.0,42,0.00,,,-99.99,216.000000,,2013-04-23 18:01:00,
2013-04-23 11:32:00,45.0,24.0,-100.00,South,187,0.0,4.0,43,0.00,,,0.00,267.000000,,2013-04-23 18:32:00,
2013-04-23 11:42:00,45.0,24.0,-100.00,South,187,0.0,4.0,43,0.00,,,0.00,267.000000,,2013-04-23 18:42:00,
2013-04-23 11:52:00,45.0,24.0,-100.00,South,187,0.0,4.0,43,0.00,,,0.00,267.000000,,2013-04-23 18:52:00,
2013-04-23 12:02:00,45.0,24.0,-100.00,South,187,0.0,4.0,43,0.00,,,0.00,267.000000,,2013-04-23 19:02:00,
2013-04-23 12:32:00,48.0,22.0,-100.00,South,169,5.0,7.0,35,0.00,,,0.00,391.000000,,2013-04-23 19:32:00,
2013-04-23 12:42:00,48.0,22.0,-100.00,South,169,5.0,7.0,35,0.00,,,0.00,391.000000,,2013-04-23 19:42:00,
2013-04-23 12:52:00,48.0,22.0,-100.00,South,169,5.0,7.0,35,0.00,,,0.00,391.000000,,2013-04-23 19:52:00,
2013-04-23 13:01:00,48.0,22.0,-100.00,South,169,5.0,7.0,35,0.00,,,0.00,391.000000,,2013-04-23 20:01:00,
2013-04-23 13:32:00,50.0,25.0,-100.00,South,174,6.0,10.0,37,0.00,,,0.00,668.000000,,2013-04-23 20:32:00,
2013-04-23 13:42:00,50.0,25.0,-100.00,South,174,6.0,10.0,37,0.00,,,0.00,668.000000,,2013-04-23 20:42:00,
2013-04-23 13:52:00,50.0,25.0,-100.00,South,174,6.0,10.0,37,0.00,,,0.00,668.000000,,2013-04-23 20:52:00,
2013-04-23 14:01:00,50.0,25.0,-100.00,South,174,6.0,10.0,37,0.00,,,0.00,668.000000,,2013-04-23 21:01:00,
2013-04-23 14:33:00,54.0,26.0,-100.00,South,179,7.0,16.0,34,0.00,,,0.00,769.000000,,2013-04-23 21:33:00,
2013-04-23 14:43:00,54.0,26.0,-100.00,South,179,7.0,16.0,34,0.00,,,0.00,769.000000,,2013-04-23 21:43:00,
2013-04-23 14:52:00,54.0,26.0,-100.00,South,179,7.0,16.0,34,0.00,,,0.00,769.000000,,2013-04-23 21:52:00,
2013-04-23 15:02:00,54.0,26.0,-100.00,South,179,7.0,16.0,34,0.00,,,0.00,769.000000,,2013-04-23 22:02:00,
2013-04-23 15:33:00,53.0,22.0,-100.00,ESE,120,0.0,12.0,30,0.00,,,0.00,402.000000,,2013-04-23 22:33:00,
2013-04-23 15:42:00,53.0,22.0,-100.00,ESE,120,0.0,12.0,30,0.00,,,0.00,402.000000,,2013-04-23 22:42:00,
2013-04-23 15:52:00,53.0,22.0,-100.00,ESE,120,0.0,12.0,30,0.00,,,0.00,402.000000,,2013-04-23 22:52:00,
2013-04-23 16:02:00,53.0,22.0,-100.00,ESE,120,0.0,12.0,30,0.00,,,0.00,402.000000,,2013-04-23 23:02:00,
2013-04-23 16:32:00,55.0,20.0,-100.00,NE,47,2.0,14.0,25,0.00,,,0.00,715.000000,,2013-04-23 23:32:00,
2013-04-23 16:42:00,55.0,20.0,-100.00,NE,47,2.0,14.0,25,0.00,,,0.00,715.000000,,2013-04-23 23:42:00,
2013-04-23 16:52:00,55.0,20.0,-100.00,NE,47,2.0,14.0,25,0.00,,,0.00,715.000000,,2013-04-23 23:52:00,
2013-04-23 17:01:00,55.0,20.0,-100.00,NE,47,2.0,14.0,25,0.00,,,0.00,715.000000,,2013-04-24 00:01:00,
2013-04-23 18:32:00,53.0,16.0,-100.00,NNE,18,0.0,6.0,23,-99.99,,,0.00,391.000000,,2013-04-24 01:32:00,
2013-04-23 18:43:00,53.0,16.0,-100.00,NNE,18,0.0,6.0,23,-99.99,,,0.00,391.000000,,2013-04-24 01:43:00,
2013-04-23 18:52:00,53.0,16.0,-100.00,NNE,18,0.0,6.0,23,-99.99,,,0.00,391.000000,,2013-04-24 01:52:00,
2013-04-23 19:02:00,53.0,16.0,-100.00,NNE,18,0.0,6.0,23,-99.99,,,0.00,391.000000,,2013-04-24 02:02:00,
2013-04-23 19:42:00,48.0,17.0,-100.00,NW,308,0.0,4.0,29,0.00,,,0.00,66.000000,,2013-04-24 02:42:00,
2013-04-23 19:49:00,48.0,17.0,-100.00,NW,308,0.0,4.0,29,0.00,,,0.00,66.000000,,2013-04-24 02:49:00,
2013-04-23 19:57:00,48.0,17.0,-100.00,NW,308,0.0,4.0,29,0.00,,,0.00,66.000000,,2013-04-24 02:57:00,
2013-04-23 20:04:00,48.0,17.0,-100.00,NW,308,0.0,4.0,29,0.00,,,0.00,66.000000,,2013-04-24 03:04:00,
2013-04-23 20:43:00,45.0,16.0,-100.00,NW,313,0.0,4.0,31,0.00,,,0.00,16.000000,,2013-04-24 03:43:00,
2013-04-23 20:53:00,45.0,16.0,-100.00,NW,313,0.0,4.0,31,0.00,,,0.00,16.000000,,2013-04-24 03:53:00,
2013-04-23 20:59:00,45.0,16.0,-100.00,NW,313,0.0,4.0,31,0.00,,,0.00,16.000000,,2013-04-24 03:59:00,
2013-04-23 21:02:00,45.0,16.0,-100.00,NW,313,0.0,4.0,31,0.00,,,0.00,16.000000,,2013-04-24 04:02:00,
2013-04-23 21:33:00,45.0,18.0,-100.00,NNW,346,0.0,3.0,33,0.00,,,0.00,0.000000,,2013-04-24 04:33:00,
2013-04-23 21:43:00,45.0,18.0,-100.00,NNW,346,0.0,3.0,33,0.00,,,0.00,0.000000,,2013-04-24 04:43:00,
2013-04-23 21:53:00,45.0,18.0,-100.00,NNW,346,0.0,3.0,33,0.00,,,0.00,0.000000,,2013-04-24 04:53:00,
2013-04-23 22:02:00,45.0,18.0,-100.00,NNW,346,0.0,3.0,33,0.00,,,0.00,0.000000,,2013-04-24 05:02:00,
2013-04-23 22:32:00,42.0,16.0,-100.00,NNW,331,0.0,1.0,35,0.00,,,0.00,0.000000,,2013-04-24 05:32:00,
2013-04-23 22:42:00,42.0,16.0,-100.00,NNW,331,0.0,1.0,35,0.00,,,0.00,0.000000,,2013-04-24 05:42:00,
2013-04-23 22:52:00,42.0,16.0,-100.00,NNW,331,0.0,1.0,35,0.00,,,0.00,0.000000,,2013-04-24 05:52:00,
2013-04-23 23:02:00,42.0,16.0,-100.00,NNW,331,0.0,1.0,35,0.00,,,0.00,0.000000,,2013-04-24 06:02:00,
2013-04-23 23:33:00,43.0,17.0,-100.00,NNW,348,0.0,0.0,35,0.00,,,0.00,0.000000,,2013-04-24 06:33:00,
2013-04-23 23:42:00,43.0,17.0,-100.00,NNW,348,0.0,0.0,35,0.00,,,0.00,0.000000,,2013-04-24 06:42:00,
2013-04-23 23:52:00,43.0,17.0,-100.00,NNW,348,0.0,0.0,35,0.00,,,0.00,0.000000,,2013-04-24 06:52:00,